Location: Kaarina
(60.4167°N, 22.4167°E)
Time: 19:00:13
(UTC+03:00)

ERS-1 Rocket - Pass Details

Date: 24 August 2019
Orbit: 753 x 758 km, 98.5° (Epoch: 18 September)

Event Time Altitude Azimuth Distance (km) Brightness Sun altitude
Exits shadow 21:38:46 - 136° (SE) 2,685 5.2 -5.0°
Reaches altitude 10° 21:39:48 10° 133° (SE) 2,283 4.8 -5.1°
Maximum altitude 21:44:36 47° 61° (ENE) 996 3.5 -5.6°
Drops below altitude 10° 21:49:25 10° 348° (NNW) 2,294 6.2 -6.1°
Sets 21:51:47 0° 343° (NNW) 3,223 7.2 -6.3°
